Time,TemperatureF,DewpointF,PressureIn,WindDirection,WindDirectionDegrees,WindSpeedMPH,WindSpeedGustMPH,Humidity,HourlyPrecipIn,Conditions,Clouds,dailyrainin,SoftwareType,DateUTC
2013-07-13 00:01:00,69.9,66.5,29.93,ENE,69,0.0,0.0,89,0.00,,,0.00,WeatherCatV1.11B39,2013-07-13 04:01:00,
2013-07-13 00:06:00,70.1,66.7,29.93,ENE,69,0.0,0.0,89,0.00,,,0.00,WeatherCatV1.11B39,2013-07-13 04:06:00,
2013-07-13 00:11:00,70.1,66.7,29.93,ENE,69,0.0,0.0,89,0.00,,,0.00,WeatherCatV1.11B39,2013-07-13 04:11:00,
2013-07-13 00:16:00,70.4,67.0,29.94,ENE,69,0.0,0.0,89,0.00,,,0.00,WeatherCatV1.11B39,2013-07-13 04:16:00,
2013-07-13 00:21:00,70.4,67.0,29.94,ENE,69,0.0,0.0,89,0.00,,,0.00,WeatherCatV1.11B39,2013-07-13 04:21:00,
2013-07-13 00:26:00,70.4,67.0,29.94,ENE,69,0.0,0.0,89,0.00,,,0.00,WeatherCatV1.11B39,2013-07-13 04:26:00,
2013-07-13 00:31:00,70.4,67.0,29.95,ENE,69,0.0,0.0,89,0.00,,,0.00,WeatherCatV1.11B39,2013-07-13 04:31:00,
2013-07-13 00:36:00,70.8,67.4,29.95,East,88,0.0,0.0,89,0.00,,,0.00,WeatherCatV1.11B39,2013-07-13 04:36:00,
2013-07-13 00:41:00,70.8,67.4,29.95,ESE,116,0.0,0.0,89,0.00,,,0.00,WeatherCatV1.11B39,2013-07-13 04:41:00,
2013-07-13 00:46:00,70.6,67.2,29.94,ESE,120,0.0,0.0,89,0.00,,,0.00,WeatherCatV1.11B39,2013-07-13 04:46:00,
2013-07-13 00:51:00,70.6,67.2,29.94,NE,54,0.0,0.0,89,0.00,,,0.00,WeatherCatV1.11B39,2013-07-13 04:51:00,
2013-07-13 00:56:00,70.4,67.0,29.94,NE,40,0.0,0.0,89,0.00,,,0.00,WeatherCatV1.11B39,2013-07-13 04:56:00,
2013-07-13 01:01:00,70.4,67.0,29.94,NNE,30,0.0,0.0,89,0.00,,,0.00,WeatherCatV1.11B39,2013-07-13 05:01:00,
2013-07-13 01:06:00,70.6,67.2,29.94,NE,55,0.0,0.0,89,0.00,,,0.00,WeatherCatV1.11B39,2013-07-13 05:06:00,
2013-07-13 01:11:00,70.6,67.2,29.94,NE,56,0.0,0.0,89,0.00,,,0.00,WeatherCatV1.11B39,2013-07-13 05:11:00,
2013-07-13 01:16:00,70.6,67.2,29.94,ENE,61,0.0,0.0,89,0.00,,,0.00,WeatherCatV1.11B39,2013-07-13 05:16:00,
2013-07-13 01:21:00,70.4,67.0,29.94,ENE,61,0.0,0.0,89,0.00,,,0.00,WeatherCatV1.11B39,2013-07-13 05:21:00,
2013-07-13 01:26:00,70.3,66.9,29.94,NE,52,0.0,0.0,89,0.00,,,0.00,WeatherCatV1.11B39,2013-07-13 05:26:00,
2013-07-13 01:31:00,70.3,66.9,29.94,ENE,68,0.0,0.0,89,0.00,,,0.00,WeatherCatV1.11B39,2013-07-13 05:31:00,
2013-07-13 01:36:00,70.3,66.9,29.94,East,89,0.0,0.0,89,0.00,,,0.00,WeatherCatV1.11B39,2013-07-13 05:36:00,
2013-07-13 01:41:00,70.3,66.6,29.94,ENE,71,0.0,0.0,88,0.00,,,0.00,WeatherCatV1.11B39,2013-07-13 05:41:00,
2013-07-13 01:46:00,70.3,66.6,29.94,ENE,64,0.0,0.0,88,0.00,,,0.00,WeatherCatV1.11B39,2013-07-13 05:46:00,
2013-07-13 01:51:00,70.3,66.6,29.94,ENE,64,0.0,0.0,88,0.00,,,0.00,WeatherCatV1.11B39,2013-07-13 05:51:00,
2013-07-13 01:56:00,70.3,66.6,29.94,NE,45,0.0,0.0,88,0.00,,,0.00,WeatherCatV1.11B39,2013-07-13 05:56:00,
2013-07-13 02:01:00,70.3,66.6,29.94,ENE,66,0.0,0.0,88,0.00,,,0.00,WeatherCatV1.11B39,2013-07-13 06:01:00,
2013-07-13 02:06:00,70.3,66.6,29.94,ENE,65,0.0,0.0,88,0.00,,,0.00,WeatherCatV1.11B39,2013-07-13 06:06:00,
2013-07-13 02:11:00,70.3,66.6,29.94,NE,48,0.0,0.0,88,0.00,,,0.00,WeatherCatV1.11B39,2013-07-13 06:11:00,
2013-07-13 02:16:00,70.3,66.6,29.94,NE,38,0.0,0.0,88,0.00,,,0.00,WeatherCatV1.11B39,2013-07-13 06:16:00,
2013-07-13 02:21:00,70.3,66.6,29.94,East,90,0.0,0.0,88,0.00,,,0.00,WeatherCatV1.11B39,2013-07-13 06:21:00,
2013-07-13 02:26:00,70.3,66.6,29.94,ENE,76,0.0,0.0,88,0.00,,,0.00,WeatherCatV1.11B39,2013-07-13 06:26:00,
2013-07-13 02:31:00,70.3,66.6,29.94,ESE,106,0.0,0.0,88,0.00,,,0.00,WeatherCatV1.11B39,2013-07-13 06:31:00,
2013-07-13 02:36:00,70.3,66.6,29.94,SE,136,0.0,0.0,88,0.00,,,0.00,WeatherCatV1.11B39,2013-07-13 06:36:00,
2013-07-13 02:41:00,70.3,66.6,29.94,NE,44,0.0,0.0,88,0.00,,,0.00,WeatherCatV1.11B39,2013-07-13 06:41:00,
2013-07-13 02:46:00,70.8,67.1,29.94,ENE,62,0.0,0.0,88,0.00,,,0.00,WeatherCatV1.11B39,2013-07-13 06:46:00,
2013-07-13 02:51:00,70.8,66.4,29.94,NE,52,0.0,0.0,86,0.00,,,0.00,WeatherCatV1.11B39,2013-07-13 06:51:00,
2013-07-13 02:56:00,70.6,66.5,29.94,ENE,65,0.0,0.0,87,0.00,,,0.00,WeatherCatV1.11B39,2013-07-13 06:56:00,
2013-07-13 03:01:00,70.6,66.2,29.94,ENE,62,0.0,0.0,86,0.00,,,0.00,WeatherCatV1.11B39,2013-07-13 07:01:00,
2013-07-13 03:06:00,70.6,66.2,29.94,NE,49,0.0,0.0,86,0.00,,,0.00,WeatherCatV1.11B39,2013-07-13 07:06:00,
2013-07-13 03:11:00,70.4,66.0,29.94,NE,48,0.0,0.0,86,0.00,,,0.00,WeatherCatV1.11B39,2013-07-13 07:11:00,
2013-07-13 03:16:00,70.6,66.5,29.94,NNE,31,0.0,0.0,87,0.00,,,0.00,WeatherCatV1.11B39,2013-07-13 07:16:00,
2013-07-13 03:21:00,70.4,66.3,29.94,NNE,32,0.0,0.0,87,0.00,,,0.00,WeatherCatV1.11B39,2013-07-13 07:21:00,
2013-07-13 03:26:00,70.4,66.3,29.94,ENE,65,0.0,0.0,87,0.00,,,0.00,WeatherCatV1.11B39,2013-07-13 07:26:00,
2013-07-13 03:31:00,70.4,66.3,29.94,ENE,66,0.0,0.0,87,0.00,,,0.00,WeatherCatV1.11B39,2013-07-13 07:31:00,
2013-07-13 03:36:00,70.4,66.3,29.94,NE,47,0.0,0.0,87,0.00,,,0.00,WeatherCatV1.11B39,2013-07-13 07:36:00,
2013-07-13 03:41:00,70.4,66.3,29.94,East,79,0.0,0.0,87,0.00,,,0.00,WeatherCatV1.11B39,2013-07-13 07:41:00,
2013-07-13 03:46:00,70.4,66.3,29.93,East,97,0.0,0.0,87,0.00,,,0.00,WeatherCatV1.11B39,2013-07-13 07:46:00,
2013-07-13 03:51:00,70.4,66.3,29.93,NE,54,0.0,0.0,87,0.00,,,0.00,WeatherCatV1.11B39,2013-07-13 07:51:00,
2013-07-13 03:56:00,70.4,66.3,29.93,NE,54,0.0,0.0,87,0.00,,,0.00,WeatherCatV1.11B39,2013-07-13 07:56:00,
2013-07-13 04:01:00,70.4,66.7,29.93,NE,37,0.0,0.0,88,0.00,,,0.00,WeatherCatV1.11B39,2013-07-13 08:01:00,
2013-07-13 04:06:00,70.4,66.7,29.93,NE,55,0.0,0.0,88,0.00,,,0.00,WeatherCatV1.11B39,2013-07-13 08:06:00,
2013-07-13 04:11:00,70.4,66.7,29.93,NE,42,0.0,0.0,88,0.00,,,0.00,WeatherCatV1.11B39,2013-07-13 08:11:00,
2013-07-13 04:16:00,70.4,66.7,29.93,NNE,31,0.0,0.0,88,0.00,,,0.00,WeatherCatV1.11B39,2013-07-13 08:16:00,
2013-07-13 04:21:00,70.3,66.6,29.93,ENE,65,0.0,0.0,88,0.00,,,0.00,WeatherCatV1.11B39,2013-07-13 08:21:00,
2013-07-13 04:26:00,70.3,66.6,29.93,ENE,75,0.0,0.0,88,0.00,,,0.00,WeatherCatV1.11B39,2013-07-13 08:26:00,
2013-07-13 04:31:00,70.3,66.6,29.93,NNE,23,0.0,0.0,88,0.00,,,0.00,WeatherCatV1.11B39,2013-07-13 08:31:00,
2013-07-13 04:36:00,70.3,66.6,29.93,NE,47,0.0,0.0,88,0.00,,,0.00,WeatherCatV1.11B39,2013-07-13 08:36:00,
2013-07-13 04:41:00,70.1,66.4,29.93,East,93,0.0,0.0,88,0.00,,,0.00,WeatherCatV1.11B39,2013-07-13 08:41:00,
2013-07-13 04:46:00,70.1,66.4,29.93,NE,51,0.0,0.0,88,0.00,,,0.00,WeatherCatV1.11B39,2013-07-13 08:46:00,
2013-07-13 04:51:00,70.1,67.0,29.93,ENE,62,0.0,0.0,90,0.00,,,0.00,WeatherCatV1.11B39,2013-07-13 08:51:00,
2013-07-13 04:56:00,69.9,66.5,29.93,NE,40,0.0,0.0,89,0.00,,,0.00,WeatherCatV1.11B39,2013-07-13 08:56:00,
2013-07-13 05:01:00,69.9,66.5,29.93,ENE,69,0.0,0.0,89,0.00,,,0.00,WeatherCatV1.11B39,2013-07-13 09:01:00,
2013-07-13 05:06:00,69.9,66.5,29.93,NE,37,0.0,0.0,89,0.00,,,0.00,WeatherCatV1.11B39,2013-07-13 09:06:00,
2013-07-13 05:11:00,69.9,66.8,29.93,East,85,0.0,0.0,90,0.00,,,0.00,WeatherCatV1.11B39,2013-07-13 09:11:00,
2013-07-13 05:16:00,70.1,67.0,29.94,ENE,62,0.0,0.0,90,0.00,,,0.00,WeatherCatV1.11B39,2013-07-13 09:16:00,
2013-07-13 05:21:00,70.1,67.0,29.94,ENE,71,0.0,0.0,90,0.00,,,0.00,WeatherCatV1.11B39,2013-07-13 09:21:00,
2013-07-13 05:26:00,70.4,67.3,29.94,ENE,73,0.0,0.0,90,0.00,,,0.00,WeatherCatV1.11B39,2013-07-13 09:26:00,
2013-07-13 05:31:00,70.4,67.6,29.94,ENE,68,0.0,0.0,91,0.00,,,0.00,WeatherCatV1.11B39,2013-07-13 09:31:00,
2013-07-13 05:36:00,70.3,67.5,29.94,ENE,65,0.0,0.0,91,0.00,,,0.00,WeatherCatV1.11B39,2013-07-13 09:36:00,
2013-07-13 05:41:00,70.4,67.6,29.94,East,86,0.0,0.0,91,0.00,,,0.00,WeatherCatV1.11B39,2013-07-13 09:41:00,
2013-07-13 05:46:00,70.3,67.5,29.94,East,79,0.0,0.0,91,0.00,,,0.00,WeatherCatV1.11B39,2013-07-13 09:46:00,
2013-07-13 05:51:00,70.3,67.5,29.94,ENE,58,0.0,0.0,91,0.00,,,0.00,WeatherCatV1.11B39,2013-07-13 09:51:00,
2013-07-13 05:56:00,70.4,67.6,29.94,East,88,2.0,2.0,91,0.00,,,0.00,WeatherCatV1.11B39,2013-07-13 09:56:00,
2013-07-13 06:01:00,70.4,67.6,29.94,SE,128,5.0,5.0,91,0.00,,,0.00,WeatherCatV1.11B39,2013-07-13 10:01:00,
2013-07-13 06:06:00,70.3,67.5,29.94,NE,54,2.0,2.0,91,0.00,,,0.00,WeatherCatV1.11B39,2013-07-13 10:06:00,
2013-07-13 06:11:00,70.3,67.5,29.94,ENE,62,10.0,10.0,91,0.00,,,0.00,WeatherCatV1.11B39,2013-07-13 10:11:00,
2013-07-13 06:16:00,70.3,67.5,29.95,ESE,119,7.0,7.0,91,0.00,,,0.00,WeatherCatV1.11B39,2013-07-13 10:16:00,
2013-07-13 06:21:00,70.3,67.5,29.95,ENE,65,7.0,7.0,91,0.00,,,0.00,WeatherCatV1.11B39,2013-07-13 10:21:00,
2013-07-13 06:26:00,70.3,67.5,29.95,NE,52,7.0,7.0,91,0.00,,,0.00,WeatherCatV1.11B39,2013-07-13 10:26:00,
2013-07-13 06:31:00,70.3,67.5,29.96,NE,52,7.0,7.0,91,0.00,,,0.00,WeatherCatV1.11B39,2013-07-13 10:31:00,
2013-07-13 06:36:00,70.1,67.3,29.96,ENE,71,8.0,8.0,91,0.00,,,0.00,WeatherCatV1.11B39,2013-07-13 10:36:00,
2013-07-13 06:41:00,70.1,67.3,29.96,ENE,58,7.0,7.0,91,0.00,,,0.00,WeatherCatV1.11B39,2013-07-13 10:41:00,
2013-07-13 06:46:00,70.1,67.3,29.97,ESE,109,6.0,6.0,91,0.00,,,0.00,WeatherCatV1.11B39,2013-07-13 10:46:00,
2013-07-13 06:51:00,69.9,67.1,29.97,ENE,76,9.0,12.0,91,0.00,,,0.00,WeatherCatV1.11B39,2013-07-13 10:51:00,
2013-07-13 06:56:00,69.9,67.1,29.97,ENE,73,0.0,8.0,91,0.00,,,0.00,WeatherCatV1.11B39,2013-07-13 10:56:00,
2013-07-13 07:01:00,69.9,67.1,29.97,ESE,120,7.0,7.0,91,0.00,,,0.00,WeatherCatV1.11B39,2013-07-13 11:01:00,
2013-07-13 07:06:00,69.9,67.1,29.97,East,100,11.0,11.0,91,0.00,,,0.00,WeatherCatV1.11B39,2013-07-13 11:06:00,
2013-07-13 07:11:00,69.9,67.1,29.97,East,100,5.0,5.0,91,0.00,,,0.00,WeatherCatV1.11B39,2013-07-13 11:11:00,
2013-07-13 07:16:00,69.9,67.1,29.97,East,89,6.0,6.0,91,0.00,,,0.00,WeatherCatV1.11B39,2013-07-13 11:16:00,
2013-07-13 07:21:00,70.1,67.3,29.97,ENE,69,1.0,1.0,91,0.00,,,0.00,WeatherCatV1.11B39,2013-07-13 11:21:00,
2013-07-13 07:26:00,69.9,67.1,29.97,East,82,4.0,5.0,91,0.00,,,0.01,WeatherCatV1.11B39,2013-07-13 11:26:00,
2013-07-13 07:31:00,69.9,67.1,29.97,NE,45,5.0,5.0,91,0.00,,,0.01,WeatherCatV1.11B39,2013-07-13 11:31:00,
2013-07-13 07:36:00,69.9,67.1,29.97,NE,44,6.0,6.0,91,0.00,,,0.01,WeatherCatV1.11B39,2013-07-13 11:36:00,
2013-07-13 07:41:00,69.9,66.8,29.97,NE,54,5.0,5.0,90,0.00,,,0.01,WeatherCatV1.11B39,2013-07-13 11:41:00,
2013-07-13 07:46:00,69.9,66.8,29.98,NE,54,5.0,5.0,90,0.00,,,0.01,WeatherCatV1.11B39,2013-07-13 11:46:00,
2013-07-13 07:51:00,69.9,66.5,29.98,ESE,106,1.0,1.0,89,0.00,,,0.01,WeatherCatV1.11B39,2013-07-13 11:51:00,
2013-07-13 07:56:00,69.6,66.2,29.98,ENE,71,4.0,5.0,89,0.00,,,0.01,WeatherCatV1.11B39,2013-07-13 11:56:00,
2013-07-13 08:01:00,69.6,66.2,29.98,East,99,7.0,7.0,89,0.00,,,0.01,WeatherCatV1.11B39,2013-07-13 12:01:00,
2013-07-13 08:06:00,69.6,65.9,29.98,ENE,75,4.0,5.0,88,0.00,,,0.01,WeatherCatV1.11B39,2013-07-13 12:06:00,
2013-07-13 08:11:00,69.6,65.9,29.98,East,85,6.0,6.0,88,0.00,,,0.01,WeatherCatV1.11B39,2013-07-13 12:11:00,
2013-07-13 08:16:00,69.6,65.9,29.99,East,93,1.0,1.0,88,0.00,,,0.01,WeatherCatV1.11B39,2013-07-13 12:16:00,
2013-07-13 08:21:00,69.6,65.9,29.99,East,86,6.0,7.0,88,0.00,,,0.01,WeatherCatV1.11B39,2013-07-13 12:21:00,
2013-07-13 08:26:00,69.6,65.9,29.99,East,79,0.0,5.0,88,0.00,,,0.01,WeatherCatV1.11B39,2013-07-13 12:26:00,
2013-07-13 08:31:00,69.6,65.9,29.99,East,96,5.0,5.0,88,0.00,,,0.01,WeatherCatV1.11B39,2013-07-13 12:31:00,
2013-07-13 08:36:00,69.6,65.9,29.99,ESE,106,5.0,5.0,88,0.00,,,0.01,WeatherCatV1.11B39,2013-07-13 12:36:00,
2013-07-13 08:41:00,69.6,65.9,29.99,NE,44,2.0,4.0,88,0.00,,,0.01,WeatherCatV1.11B39,2013-07-13 12:41:00,
2013-07-13 08:46:00,69.6,65.9,30.00,NE,44,2.0,2.0,88,0.00,,,0.01,WeatherCatV1.11B39,2013-07-13 12:46:00,
2013-07-13 08:51:00,69.6,65.9,30.00,East,89,2.0,7.0,88,0.00,,,0.01,WeatherCatV1.11B39,2013-07-13 12:51:00,
2013-07-13 08:56:00,69.6,65.9,30.00,East,85,3.0,3.0,88,0.00,,,0.01,WeatherCatV1.11B39,2013-07-13 12:56:00,
2013-07-13 09:01:00,69.6,65.9,30.01,ENE,68,2.0,3.0,88,0.00,,,0.01,WeatherCatV1.11B39,2013-07-13 13:01:00,
2013-07-13 09:06:00,69.6,65.9,30.01,NE,51,1.0,5.0,88,0.00,,,0.01,WeatherCatV1.11B39,2013-07-13 13:06:00,
2013-07-13 09:11:00,69.6,65.9,30.01,East,95,3.0,3.0,88,0.00,,,0.01,WeatherCatV1.11B39,2013-07-13 13:11:00,
2013-07-13 09:16:00,69.6,65.9,30.02,ENE,72,5.0,6.0,88,0.00,,,0.01,WeatherCatV1.11B39,2013-07-13 13:16:00,
2013-07-13 09:21:00,69.6,66.2,30.02,East,93,0.0,11.0,89,0.00,,,0.01,WeatherCatV1.11B39,2013-07-13 13:21:00,
2013-07-13 09:26:00,69.6,66.2,30.02,East,100,8.0,8.0,89,0.00,,,0.01,WeatherCatV1.11B39,2013-07-13 13:26:00,
2013-07-13 09:31:00,69.6,66.2,30.02,East,80,3.0,3.0,89,0.00,,,0.01,WeatherCatV1.11B39,2013-07-13 13:31:00,
2013-07-13 09:36:00,69.6,66.2,30.02,ESE,113,6.0,6.0,89,0.00,,,0.01,WeatherCatV1.11B39,2013-07-13 13:36:00,
2013-07-13 09:41:00,69.6,66.2,30.02,ENE,66,6.0,6.0,89,0.00,,,0.01,WeatherCatV1.11B39,2013-07-13 13:41:00,
2013-07-13 09:46:00,69.6,66.2,30.02,ENE,64,2.0,2.0,89,0.00,,,0.01,WeatherCatV1.11B39,2013-07-13 13:46:00,
2013-07-13 09:51:00,69.6,66.2,30.02,ESE,102,6.0,6.0,89,0.00,,,0.01,WeatherCatV1.11B39,2013-07-13 13:51:00,
2013-07-13 09:56:00,69.6,66.2,30.02,NE,51,6.0,7.0,89,0.00,,,0.01,WeatherCatV1.11B39,2013-07-13 13:56:00,
2013-07-13 10:01:00,69.6,66.5,30.02,ESE,109,3.0,8.0,90,0.00,,,0.01,WeatherCatV1.11B39,2013-07-13 14:01:00,
2013-07-13 10:06:00,69.6,66.5,30.02,ENE,71,2.0,5.0,90,0.00,,,0.01,WeatherCatV1.11B39,2013-07-13 14:06:00,
2013-07-13 10:11:00,69.8,66.7,30.02,East,90,10.0,10.0,90,0.00,,,0.01,WeatherCatV1.11B39,2013-07-13 14:11:00,
2013-07-13 10:16:00,69.8,66.7,30.02,ENE,72,6.0,6.0,90,0.00,,,0.01,WeatherCatV1.11B39,2013-07-13 14:16:00,
2013-07-13 10:21:00,69.9,66.8,30.02,ENE,72,2.0,5.0,90,0.00,,,0.01,WeatherCatV1.11B39,2013-07-13 14:21:00,
2013-07-13 10:26:00,69.9,66.8,30.02,East,79,10.0,10.0,90,0.00,,,0.01,WeatherCatV1.11B39,2013-07-13 14:26:00,
2013-07-13 10:31:00,69.9,66.8,30.02,SE,140,11.0,11.0,90,0.00,,,0.01,WeatherCatV1.11B39,2013-07-13 14:31:00,
2013-07-13 10:36:00,69.9,66.8,30.02,ESE,102,8.0,8.0,90,0.00,,,0.01,WeatherCatV1.11B39,2013-07-13 14:36:00,
2013-07-13 10:41:00,70.1,67.0,30.02,ESE,110,14.0,14.0,90,0.00,,,0.01,WeatherCatV1.11B39,2013-07-13 14:41:00,
2013-07-13 10:46:00,70.3,67.2,30.02,ESE,110,6.0,10.0,90,0.00,,,0.01,WeatherCatV1.11B39,2013-07-13 14:46:00,
2013-07-13 10:51:00,70.3,67.2,30.02,East,82,3.0,10.0,90,0.00,,,0.01,WeatherCatV1.11B39,2013-07-13 14:51:00,
2013-07-13 10:56:00,70.3,67.2,30.02,East,100,5.0,5.0,90,0.00,,,0.01,WeatherCatV1.11B39,2013-07-13 14:56:00,
2013-07-13 11:01:00,70.6,67.5,30.03,ENE,68,4.0,5.0,90,0.00,,,0.01,WeatherCatV1.11B39,2013-07-13 15:01:00,
2013-07-13 11:06:00,70.6,67.5,30.03,NNE,28,5.0,5.0,90,0.00,,,0.01,WeatherCatV1.11B39,2013-07-13 15:06:00,
2013-07-13 11:11:00,70.6,67.5,30.03,ESE,117,7.0,7.0,90,0.00,,,0.01,WeatherCatV1.11B39,2013-07-13 15:11:00,
2013-07-13 11:16:00,70.6,67.5,30.03,ESE,117,7.0,7.0,90,0.00,,,0.01,WeatherCatV1.11B39,2013-07-13 15:16:00,
2013-07-13 11:21:00,70.6,67.2,30.03,ENE,62,2.0,8.0,89,0.00,,,0.01,WeatherCatV1.11B39,2013-07-13 15:21:00,
2013-07-13 11:26:00,70.6,67.2,30.03,East,99,6.0,6.0,89,0.00,,,0.01,WeatherCatV1.11B39,2013-07-13 15:26:00,
2013-07-13 11:31:00,70.6,67.2,30.03,ENE,76,5.0,10.0,89,0.00,,,0.01,WeatherCatV1.11B39,2013-07-13 15:31:00,
2013-07-13 11:36:00,71.1,67.7,30.03,East,86,7.0,9.0,89,0.00,,,0.01,WeatherCatV1.11B39,2013-07-13 15:36:00,
2013-07-13 11:41:00,70.9,67.5,30.03,ENE,58,2.0,2.0,89,0.00,,,0.01,WeatherCatV1.11B39,2013-07-13 15:41:00,
2013-07-13 11:46:00,70.9,67.5,30.03,ENE,64,12.0,12.0,89,0.00,,,0.01,WeatherCatV1.11B39,2013-07-13 15:46:00,
2013-07-13 11:51:00,70.9,67.5,30.03,ENE,69,10.0,10.0,89,0.00,,,0.01,WeatherCatV1.11B39,2013-07-13 15:51:00,
2013-07-13 11:56:00,70.9,67.5,30.03,ENE,78,2.0,2.0,89,0.00,,,0.01,WeatherCatV1.11B39,2013-07-13 15:56:00,
2013-07-13 12:01:00,70.9,67.5,30.04,NE,54,2.0,2.0,89,0.00,,,0.01,WeatherCatV1.11B39,2013-07-13 16:01:00,
2013-07-13 12:06:00,70.9,67.5,30.04,ENE,68,6.0,10.0,89,0.00,,,0.01,WeatherCatV1.11B39,2013-07-13 16:06:00,
2013-07-13 12:11:00,70.9,67.5,30.04,ENE,76,6.0,7.0,89,0.00,,,0.01,WeatherCatV1.11B39,2013-07-13 16:11:00,
2013-07-13 12:16:00,70.9,67.5,30.04,ENE,76,6.0,6.0,89,0.00,,,0.01,WeatherCatV1.11B39,2013-07-13 16:16:00,
2013-07-13 12:21:00,71.5,68.1,30.04,ENE,71,2.0,6.0,89,0.00,,,0.01,WeatherCatV1.11B39,2013-07-13 16:21:00,
2013-07-13 12:26:00,71.5,68.1,30.04,ESE,120,6.0,10.0,89,0.00,,,0.01,WeatherCatV1.11B39,2013-07-13 16:26:00,
2013-07-13 12:31:00,71.6,68.2,30.04,ESE,117,5.0,6.0,89,0.00,,,0.01,WeatherCatV1.11B39,2013-07-13 16:31:00,
2013-07-13 12:36:00,71.6,68.2,30.04,SE,130,5.0,5.0,89,0.00,,,0.01,WeatherCatV1.11B39,2013-07-13 16:36:00,
2013-07-13 12:41:00,71.6,68.2,30.04,SE,130,5.0,5.0,89,0.00,,,0.01,WeatherCatV1.11B39,2013-07-13 16:41:00,
2013-07-13 12:46:00,71.8,68.4,30.03,East,82,11.0,11.0,89,0.00,,,0.01,WeatherCatV1.11B39,2013-07-13 16:46:00,
2013-07-13 12:51:00,72.0,68.6,30.03,ESE,120,7.0,7.0,89,0.00,,,0.01,WeatherCatV1.11B39,2013-07-13 16:51:00,
2013-07-13 12:56:00,72.3,68.9,30.03,East,86,5.0,5.0,89,0.00,,,0.01,WeatherCatV1.11B39,2013-07-13 16:56:00,
2013-07-13 13:01:00,72.5,69.1,30.03,East,93,5.0,5.0,89,0.00,,,0.01,WeatherCatV1.11B39,2013-07-13 17:01:00,
2013-07-13 13:06:00,72.8,69.4,30.03,ESE,113,5.0,5.0,89,0.00,,,0.01,WeatherCatV1.11B39,2013-07-13 17:06:00,
2013-07-13 13:11:00,73.0,69.6,30.03,SE,133,1.0,1.0,89,0.00,,,0.01,WeatherCatV1.11B39,2013-07-13 17:11:00,
2013-07-13 13:16:00,73.0,69.6,30.03,SE,136,2.0,2.0,89,0.00,,,0.01,WeatherCatV1.11B39,2013-07-13 17:16:00,
2013-07-13 13:21:00,73.3,69.9,30.03,ESE,123,3.0,3.0,89,0.00,,,0.01,WeatherCatV1.11B39,2013-07-13 17:21:00,
2013-07-13 13:26:00,73.5,70.0,30.03,ESE,117,6.0,6.0,89,0.00,,,0.01,WeatherCatV1.11B39,2013-07-13 17:26:00,
2013-07-13 13:31:00,73.7,70.2,30.02,ENE,73,0.0,0.0,89,0.00,,,0.01,WeatherCatV1.11B39,2013-07-13 17:31:00,
2013-07-13 13:36:00,74.0,70.5,30.02,SE,124,5.0,5.0,89,0.00,,,0.01,WeatherCatV1.11B39,2013-07-13 17:36:00,
2013-07-13 13:41:00,74.0,70.5,30.02,SE,124,5.0,5.0,89,0.00,,,0.01,WeatherCatV1.11B39,2013-07-13 17:41:00,
2013-07-13 13:46:00,74.6,71.1,30.02,ESE,109,7.0,8.0,89,0.00,,,0.01,WeatherCatV1.11B39,2013-07-13 17:46:00,
2013-07-13 13:51:00,74.7,71.2,30.02,SE,140,16.0,16.0,89,0.00,,,0.01,WeatherCatV1.11B39,2013-07-13 17:51:00,
2013-07-13 13:56:00,74.9,71.4,30.02,SSE,168,7.0,7.0,89,0.00,,,0.01,WeatherCatV1.11B39,2013-07-13 17:56:00,
2013-07-13 14:01:00,75.3,71.8,30.01,ENE,68,5.0,11.0,89,0.00,,,0.01,WeatherCatV1.11B39,2013-07-13 18:01:00,
2013-07-13 14:06:00,75.3,71.8,30.01,East,86,6.0,6.0,89,0.00,,,0.01,WeatherCatV1.11B39,2013-07-13 18:06:00,
2013-07-13 14:11:00,75.3,69.4,30.01,ENE,71,6.0,6.0,82,0.00,,,0.01,WeatherCatV1.11B39,2013-07-13 18:11:00,
2013-07-13 14:16:00,75.3,69.4,30.01,East,83,6.0,6.0,82,0.00,,,0.01,WeatherCatV1.11B39,2013-07-13 18:16:00,
2013-07-13 14:21:00,75.3,69.4,30.01,ENE,69,5.0,5.0,82,0.00,,,0.01,WeatherCatV1.11B39,2013-07-13 18:21:00,
2013-07-13 14:26:00,75.1,69.2,30.01,ENE,72,0.0,0.0,82,0.00,,,0.01,WeatherCatV1.11B39,2013-07-13 18:26:00,
2013-07-13 14:31:00,75.1,69.2,30.00,ESE,114,5.0,5.0,82,0.00,,,0.01,WeatherCatV1.11B39,2013-07-13 18:31:00,
2013-07-13 14:36:00,75.4,69.5,30.00,SE,145,6.0,6.0,82,0.00,,,0.01,WeatherCatV1.11B39,2013-07-13 18:36:00,
2013-07-13 14:41:00,75.4,69.5,30.00,SE,144,8.0,14.0,82,0.00,,,0.01,WeatherCatV1.11B39,2013-07-13 18:41:00,
2013-07-13 14:46:00,75.4,69.1,30.01,ESE,120,1.0,1.0,81,0.00,,,0.01,WeatherCatV1.11B39,2013-07-13 18:46:00,
2013-07-13 14:51:00,75.4,69.1,30.01,ENE,66,5.0,8.0,81,0.00,,,0.01,WeatherCatV1.11B39,2013-07-13 18:51:00,
2013-07-13 14:56:00,75.6,69.3,30.01,East,83,2.0,2.0,81,0.00,,,0.01,WeatherCatV1.11B39,2013-07-13 18:56:00,
2013-07-13 15:01:00,75.6,69.3,30.00,East,83,6.0,6.0,81,0.00,,,0.01,WeatherCatV1.11B39,2013-07-13 19:01:00,
2013-07-13 15:06:00,75.6,69.3,30.00,SSE,150,6.0,6.0,81,0.00,,,0.01,WeatherCatV1.11B39,2013-07-13 19:06:00,
2013-07-13 15:11:00,75.8,69.5,30.00,ESE,110,0.0,0.0,81,0.00,,,0.01,WeatherCatV1.11B39,2013-07-13 19:11:00,
2013-07-13 15:16:00,75.8,69.5,30.00,ESE,104,4.0,5.0,81,0.00,,,0.01,WeatherCatV1.11B39,2013-07-13 19:16:00,
2013-07-13 15:21:00,76.0,69.7,30.00,ESE,102,0.0,8.0,81,0.00,,,0.01,WeatherCatV1.11B39,2013-07-13 19:21:00,
2013-07-13 15:26:00,75.8,69.5,30.00,East,85,0.0,0.0,81,0.00,,,0.01,WeatherCatV1.11B39,2013-07-13 19:26:00,
2013-07-13 15:31:00,75.8,69.5,30.00,East,95,1.0,11.0,81,0.00,,,0.01,WeatherCatV1.11B39,2013-07-13 19:31:00,
2013-07-13 15:36:00,75.8,69.5,30.00,SE,126,0.0,0.0,81,0.00,,,0.01,WeatherCatV1.11B39,2013-07-13 19:36:00,
2013-07-13 15:41:00,76.0,69.7,30.00,ESE,110,5.0,5.0,81,0.00,,,0.01,WeatherCatV1.11B39,2013-07-13 19:41:00,
2013-07-13 15:47:00,76.0,69.7,30.00,East,93,5.0,5.0,81,0.00,,,0.01,WeatherCatV1.11B39,2013-07-13 19:47:00,
2013-07-13 15:52:00,76.0,69.7,30.00,East,90,1.0,1.0,81,0.00,,,0.01,WeatherCatV1.11B39,2013-07-13 19:52:00,
2013-07-13 15:57:00,76.0,69.7,30.00,ESE,119,8.0,11.0,81,0.00,,,0.01,WeatherCatV1.11B39,2013-07-13 19:57:00,
2013-07-13 16:02:00,76.0,69.7,30.00,East,93,9.0,9.0,81,0.00,,,0.01,WeatherCatV1.11B39,2013-07-13 20:02:00,
2013-07-13 16:07:00,76.0,69.7,30.00,East,93,9.0,9.0,81,0.00,,,0.01,WeatherCatV1.11B39,2013-07-13 20:07:00,
2013-07-13 16:12:00,76.0,69.7,30.00,ESE,104,5.0,7.0,81,0.00,,,0.01,WeatherCatV1.11B39,2013-07-13 20:12:00,
2013-07-13 16:17:00,76.0,69.7,30.00,ENE,62,6.0,6.0,81,0.00,,,0.01,WeatherCatV1.11B39,2013-07-13 20:17:00,
2013-07-13 16:22:00,76.1,69.8,30.00,ENE,65,8.0,8.0,81,0.00,,,0.01,WeatherCatV1.11B39,2013-07-13 20:22:00,
2013-07-13 16:27:00,76.1,69.8,30.00,ENE,66,0.0,0.0,81,0.00,,,0.01,WeatherCatV1.11B39,2013-07-13 20:27:00,
2013-07-13 16:32:00,76.3,70.0,30.00,NE,49,0.0,0.0,81,0.00,,,0.01,WeatherCatV1.11B39,2013-07-13 20:32:00,
2013-07-13 16:37:00,76.3,69.3,30.00,ENE,72,1.0,1.0,79,0.00,,,0.01,WeatherCatV1.11B39,2013-07-13 20:37:00,
2013-07-13 16:42:00,76.5,69.5,30.00,SE,128,0.0,1.0,79,0.00,,,0.01,WeatherCatV1.11B39,2013-07-13 20:42:00,
2013-07-13 16:47:00,76.5,69.5,29.99,SE,134,7.0,7.0,79,0.00,,,0.01,WeatherCatV1.11B39,2013-07-13 20:47:00,
2013-07-13 16:52:00,76.5,69.5,29.99,ESE,121,14.0,14.0,79,0.00,,,0.01,WeatherCatV1.11B39,2013-07-13 20:52:00,
2013-07-13 16:57:00,76.3,69.3,29.99,ESE,112,5.0,5.0,79,0.00,,,0.01,WeatherCatV1.11B39,2013-07-13 20:57:00,
2013-07-13 17:02:00,76.3,69.3,29.98,East,88,4.0,4.0,79,0.00,,,0.01,WeatherCatV1.11B39,2013-07-13 21:02:00,
2013-07-13 17:07:00,76.3,69.3,29.98,ESE,106,0.0,7.0,79,0.00,,,0.01,WeatherCatV1.11B39,2013-07-13 21:07:00,
2013-07-13 17:12:00,76.3,69.3,29.98,ESE,121,5.0,5.0,79,0.00,,,0.01,WeatherCatV1.11B39,2013-07-13 21:12:00,
2013-07-13 17:17:00,76.3,69.3,29.99,ESE,109,3.0,3.0,79,0.00,,,0.01,WeatherCatV1.11B39,2013-07-13 21:17:00,
2013-07-13 17:22:00,76.3,69.3,29.99,East,92,2.0,2.0,79,0.00,,,0.01,WeatherCatV1.11B39,2013-07-13 21:22:00,
2013-07-13 17:27:00,76.3,69.3,29.99,ESE,104,5.0,5.0,79,0.00,,,0.01,WeatherCatV1.11B39,2013-07-13 21:27:00,
2013-07-13 17:32:00,76.3,69.3,29.98,ESE,123,0.0,0.0,79,0.00,,,0.01,WeatherCatV1.11B39,2013-07-13 21:32:00,
2013-07-13 17:37:00,76.3,69.3,29.98,ENE,78,3.0,3.0,79,0.00,,,0.01,WeatherCatV1.11B39,2013-07-13 21:37:00,
2013-07-13 17:42:00,76.3,69.3,29.98,SE,133,0.0,0.0,79,0.00,,,0.01,WeatherCatV1.11B39,2013-07-13 21:42:00,
2013-07-13 17:47:00,76.3,69.3,29.98,ESE,104,3.0,8.0,79,0.00,,,0.01,WeatherCatV1.11B39,2013-07-13 21:47:00,
2013-07-13 17:52:00,76.3,69.3,29.98,ESE,104,3.0,3.0,79,0.00,,,0.01,WeatherCatV1.11B39,2013-07-13 21:52:00,
2013-07-13 17:57:00,76.3,69.3,29.98,East,95,10.0,10.0,79,0.00,,,0.01,WeatherCatV1.11B39,2013-07-13 21:57:00,
2013-07-13 18:02:00,75.8,68.8,29.99,ESE,123,6.0,10.0,79,0.00,,,0.01,WeatherCatV1.11B39,2013-07-13 22:02:00,
2013-07-13 18:07:00,75.6,68.6,29.99,ESE,120,6.0,6.0,79,0.00,,,0.01,WeatherCatV1.11B39,2013-07-13 22:07:00,
2013-07-13 18:12:00,75.6,68.6,29.99,ESE,120,6.0,6.0,79,0.00,,,0.01,WeatherCatV1.11B39,2013-07-13 22:12:00,
2013-07-13 18:17:00,75.6,68.6,30.00,ESE,120,6.0,6.0,79,0.00,,,0.01,WeatherCatV1.11B39,2013-07-13 22:17:00,
2013-07-13 18:22:00,75.6,68.6,30.00,East,79,1.0,1.0,79,0.00,,,0.01,WeatherCatV1.11B39,2013-07-13 22:22:00,
2013-07-13 18:27:00,74.9,67.9,30.00,ESE,119,6.0,6.0,79,0.00,,,0.01,WeatherCatV1.11B39,2013-07-13 22:27:00,
2013-07-13 18:32:00,74.7,67.7,30.01,East,85,2.0,6.0,79,0.00,,,0.01,WeatherCatV1.11B39,2013-07-13 22:32:00,
2013-07-13 18:37:00,74.7,67.7,30.01,SE,136,5.0,5.0,79,0.00,,,0.01,WeatherCatV1.11B39,2013-07-13 22:37:00,
2013-07-13 18:42:00,74.7,67.7,30.01,ENE,59,5.0,5.0,79,0.00,,,0.01,WeatherCatV1.11B39,2013-07-13 22:42:00,
2013-07-13 18:47:00,74.6,67.6,30.01,East,79,6.0,6.0,79,0.00,,,0.01,WeatherCatV1.11B39,2013-07-13 22:47:00,
2013-07-13 18:52:00,74.6,67.6,30.01,ENE,73,1.0,3.0,79,0.00,,,0.01,WeatherCatV1.11B39,2013-07-13 22:52:00,
2013-07-13 18:57:00,74.6,68.7,30.01,East,82,5.0,5.0,82,0.00,,,0.01,WeatherCatV1.11B39,2013-07-13 22:57:00,
2013-07-13 19:02:00,74.6,68.7,30.00,East,85,6.0,6.0,82,0.00,,,0.01,WeatherCatV1.11B39,2013-07-13 23:02:00,
2013-07-13 19:07:00,74.4,68.5,30.00,East,95,4.0,4.0,82,0.00,,,0.01,WeatherCatV1.11B39,2013-07-13 23:07:00,
2013-07-13 19:12:00,74.6,69.1,30.00,East,88,4.0,7.0,83,0.00,,,0.01,WeatherCatV1.11B39,2013-07-13 23:12:00,
2013-07-13 19:17:00,74.6,69.1,30.01,East,95,5.0,5.0,83,0.00,,,0.01,WeatherCatV1.11B39,2013-07-13 23:17:00,
2013-07-13 19:22:00,74.6,69.1,30.01,ESE,113,7.0,7.0,83,0.00,,,0.01,WeatherCatV1.11B39,2013-07-13 23:22:00,
2013-07-13 19:27:00,74.6,69.1,30.01,ESE,120,4.0,7.0,83,0.00,,,0.01,WeatherCatV1.11B39,2013-07-13 23:27:00,
2013-07-13 19:32:00,74.6,69.1,30.01,ESE,109,7.0,7.0,83,0.00,,,0.01,WeatherCatV1.11B39,2013-07-13 23:32:00,
2013-07-13 19:37:00,74.6,69.1,30.01,ESE,113,6.0,6.0,83,0.00,,,0.01,WeatherCatV1.11B39,2013-07-13 23:37:00,
2013-07-13 19:42:00,74.6,69.1,30.01,ESE,113,6.0,6.0,83,0.00,,,0.01,WeatherCatV1.11B39,2013-07-13 23:42:00,
2013-07-13 19:47:00,74.6,69.1,30.00,East,82,6.0,6.0,83,0.00,,,0.01,WeatherCatV1.11B39,2013-07-13 23:47:00,
2013-07-13 19:52:00,74.6,69.1,30.00,ENE,68,0.0,6.0,83,0.00,,,0.01,WeatherCatV1.11B39,2013-07-13 23:52:00,
2013-07-13 19:57:00,74.6,69.1,30.00,ENE,68,0.0,0.0,83,0.00,,,0.01,WeatherCatV1.11B39,2013-07-13 23:57:00,
2013-07-13 20:02:00,74.6,69.1,30.01,ENE,68,0.0,0.0,83,0.00,,,0.01,WeatherCatV1.11B39,2013-07-14 00:02:00,
2013-07-13 20:07:00,74.6,69.1,30.01,ENE,68,0.0,0.0,83,0.00,,,0.01,WeatherCatV1.11B39,2013-07-14 00:07:00,
2013-07-13 20:12:00,74.6,69.1,30.01,ENE,73,0.0,0.0,83,0.00,,,0.01,WeatherCatV1.11B39,2013-07-14 00:12:00,
2013-07-13 20:17:00,74.6,69.1,30.01,ESE,103,0.0,0.0,83,0.00,,,0.01,WeatherCatV1.11B39,2013-07-14 00:17:00,
2013-07-13 20:22:00,74.6,69.1,30.01,ENE,71,5.0,5.0,83,0.00,,,0.01,WeatherCatV1.11B39,2013-07-14 00:22:00,
2013-07-13 20:27:00,74.6,69.4,30.01,SSE,150,0.0,9.0,84,0.00,,,0.01,WeatherCatV1.11B39,2013-07-14 00:27:00,
2013-07-13 20:32:00,74.6,69.4,30.02,East,90,0.0,3.0,84,0.00,,,0.01,WeatherCatV1.11B39,2013-07-14 00:32:00,
2013-07-13 20:37:00,74.6,69.4,30.02,SE,137,11.0,11.0,84,0.00,,,0.01,WeatherCatV1.11B39,2013-07-14 00:37:00,
2013-07-13 20:42:00,74.6,69.4,30.02,SE,137,11.0,11.0,84,0.00,,,0.01,WeatherCatV1.11B39,2013-07-14 00:42:00,
2013-07-13 20:47:00,74.6,69.4,30.02,ESE,117,0.0,5.0,84,0.00,,,0.01,WeatherCatV1.11B39,2013-07-14 00:47:00,
2013-07-13 20:52:00,74.6,69.4,30.02,East,100,6.0,7.0,84,0.00,,,0.01,WeatherCatV1.11B39,2013-07-14 00:52:00,
2013-07-13 20:57:00,74.2,69.0,30.02,ENE,73,0.0,0.0,84,0.00,,,0.01,WeatherCatV1.11B39,2013-07-14 00:57:00,
2013-07-13 21:02:00,74.2,69.0,30.01,East,85,0.0,0.0,84,0.00,,,0.01,WeatherCatV1.11B39,2013-07-14 01:02:00,
2013-07-13 21:07:00,74.0,69.2,30.01,East,85,1.0,4.0,85,0.00,,,0.01,WeatherCatV1.11B39,2013-07-14 01:07:00,
2013-07-13 21:12:00,73.9,69.1,30.01,East,82,0.0,0.0,85,0.00,,,0.01,WeatherCatV1.11B39,2013-07-14 01:12:00,
2013-07-13 21:17:00,73.7,68.9,30.02,ESE,102,6.0,6.0,85,0.00,,,0.01,WeatherCatV1.11B39,2013-07-14 01:17:00,
2013-07-13 21:22:00,73.7,68.9,30.02,East,80,3.0,3.0,85,0.00,,,0.01,WeatherCatV1.11B39,2013-07-14 01:22:00,
2013-07-13 21:27:00,73.5,68.7,30.02,East,85,3.0,3.0,85,0.00,,,0.01,WeatherCatV1.11B39,2013-07-14 01:27:00,
2013-07-13 21:32:00,73.5,68.7,30.02,East,85,0.0,0.0,85,0.00,,,0.01,WeatherCatV1.11B39,2013-07-14 01:32:00,
2013-07-13 21:37:00,73.5,68.7,30.02,NE,49,5.0,5.0,85,0.00,,,0.01,WeatherCatV1.11B39,2013-07-14 01:37:00,
2013-07-13 21:42:00,73.5,68.7,30.02,ENE,62,0.0,0.0,85,0.00,,,0.01,WeatherCatV1.11B39,2013-07-14 01:42:00,
2013-07-13 21:47:00,73.5,69.4,30.02,East,86,0.0,0.0,87,0.00,,,0.01,WeatherCatV1.11B39,2013-07-14 01:47:00,
2013-07-13 21:52:00,73.2,69.1,30.02,NE,56,0.0,0.0,87,0.00,,,0.01,WeatherCatV1.11B39,2013-07-14 01:52:00,
2013-07-13 21:57:00,73.2,69.1,30.02,ENE,59,0.0,0.0,87,0.00,,,0.01,WeatherCatV1.11B39,2013-07-14 01:57:00,
2013-07-13 22:02:00,73.2,69.1,30.03,NE,55,0.0,0.0,87,0.00,,,0.01,WeatherCatV1.11B39,2013-07-14 02:02:00,
2013-07-13 22:07:00,73.2,69.1,30.03,NE,55,0.0,0.0,87,0.00,,,0.01,WeatherCatV1.11B39,2013-07-14 02:07:00,
2013-07-13 22:12:00,73.2,69.4,30.03,NE,56,0.0,0.0,88,0.00,,,0.01,WeatherCatV1.11B39,2013-07-14 02:12:00,
2013-07-13 22:17:00,73.2,69.4,30.02,ENE,65,0.0,0.0,88,0.00,,,0.01,WeatherCatV1.11B39,2013-07-14 02:17:00,
2013-07-13 22:22:00,73.2,69.4,30.02,ENE,62,0.0,0.0,88,0.00,,,0.01,WeatherCatV1.11B39,2013-07-14 02:22:00,
2013-07-13 22:27:00,73.0,69.2,30.02,East,92,0.0,0.0,88,0.00,,,0.01,WeatherCatV1.11B39,2013-07-14 02:27:00,
2013-07-13 22:32:00,73.0,69.6,30.02,ENE,66,0.0,0.0,89,0.00,,,0.01,WeatherCatV1.11B39,2013-07-14 02:32:00,
2013-07-13 22:37:00,73.0,69.6,30.02,ENE,65,0.0,0.0,89,0.00,,,0.01,WeatherCatV1.11B39,2013-07-14 02:37:00,
2013-07-13 22:42:00,73.0,69.6,30.02,East,83,0.0,0.0,89,0.00,,,0.01,WeatherCatV1.11B39,2013-07-14 02:42:00,
2013-07-13 22:47:00,73.0,69.6,30.02,ENE,71,0.0,0.0,89,0.00,,,0.01,WeatherCatV1.11B39,2013-07-14 02:47:00,
2013-07-13 22:52:00,73.0,69.6,30.02,ENE,66,0.0,0.0,89,0.00,,,0.01,WeatherCatV1.11B39,2013-07-14 02:52:00,
2013-07-13 22:57:00,73.0,69.6,30.02,ENE,71,0.0,0.0,89,0.00,,,0.01,WeatherCatV1.11B39,2013-07-14 02:57:00,
2013-07-13 23:02:00,73.0,69.6,30.02,ENE,76,0.0,0.0,89,0.00,,,0.01,WeatherCatV1.11B39,2013-07-14 03:02:00,
2013-07-13 23:07:00,73.0,69.6,30.02,East,80,0.0,0.0,89,0.00,,,0.01,WeatherCatV1.11B39,2013-07-14 03:07:00,
2013-07-13 23:12:00,73.0,69.6,30.02,SE,137,0.0,0.0,89,0.00,,,0.01,WeatherCatV1.11B39,2013-07-14 03:12:00,
2013-07-13 23:17:00,73.0,69.6,30.03,ENE,75,0.0,0.0,89,0.00,,,0.01,WeatherCatV1.11B39,2013-07-14 03:17:00,
2013-07-13 23:22:00,73.0,69.6,30.03,East,86,0.0,0.0,89,0.00,,,0.01,WeatherCatV1.11B39,2013-07-14 03:22:00,
2013-07-13 23:27:00,73.0,69.6,30.03,East,80,0.0,0.0,89,0.00,,,0.01,WeatherCatV1.11B39,2013-07-14 03:27:00,
2013-07-13 23:32:00,73.0,69.6,30.03,East,80,0.0,0.0,89,0.00,,,0.01,WeatherCatV1.11B39,2013-07-14 03:32:00,
2013-07-13 23:37:00,73.0,69.6,30.03,ENE,65,0.0,0.0,89,0.00,,,0.01,WeatherCatV1.11B39,2013-07-14 03:37:00,
2013-07-13 23:42:00,73.0,69.6,30.03,ENE,65,0.0,0.0,89,0.00,,,0.01,WeatherCatV1.11B39,2013-07-14 03:42:00,
2013-07-13 23:47:00,73.0,69.6,30.04,ENE,65,0.0,0.0,89,0.00,,,0.01,WeatherCatV1.11B39,2013-07-14 03:47:00,
2013-07-13 23:52:00,73.0,69.6,30.04,ENE,65,0.0,0.0,89,0.00,,,0.01,WeatherCatV1.11B39,2013-07-14 03:52:00,
2013-07-13 23:57:00,73.0,69.6,30.04,ENE,65,0.0,0.0,89,0.00,,,0.01,WeatherCatV1.11B39,2013-07-14 03:57:00,